Погода Янги-Юган

Погода Янги-Юган : погода сейчас, прогноз погоды и архив. Всё, что Вы хотите узнать о погоде Янги-Юган!

Хотите узнать прогноз погоды Янги-Юган? Тогда Вам сюда: Погода Янги-Юган

Поиск расширенной информации на нашем сайте:

Другие новости

Новости СМИ2

Главная страница сайта

Новости сайта

03.07.2017

Напоминаем, что на нашем специализированном сайте Метеоцентр.Азия вы можете получить высокодетализированные автоматические прогнозы погоды по пунктам России, СНГ и мира в авиационном формате (включающие направление и скорость ветра, видимость, явления погоды, количество и форму облачности, нижнюю и верхнюю границу облачности).

Рекомендуем: Полиуретановые мешки кондитерские мешки.

Погода Янги-Юган - сегодня

Время (UTC), дата Ветер
(°,м/с) 
Видим.   Явления Облачность Т
(°С)
Тd
(°С)
f(%) Тe
(°С)
Pmin
(гПа)
dP
(гПа)
Po
(мм)
O2
(г/м3)
Тmin Tmax R s Состояние
почвы
03 21.07.17 тихо ()   20000 м    ясно 
+24.3 +13.8 52 +31  1016.7  0.9  759  278  +14         
15 21.07.17 100 (В) 20000 м    10/0 верхняя 
[Cs]
+22.4 +12.1 52 +26  1016.6  0.6  759  281    +32     
21 21.07.17 100 (В) н/о    н/о 
+18.4 +12.8 70 +24  1016.8  759  284           
00 22.07.17 070 (В) н/о    н/о 
+15.8 +13.9 88 +24  1017.1  0.3  760  287           
03 22.07.17 160 (Ю) 20000 м    ясно 
+24.7 +13.8 51 +31  1017.1  0.1  760  278  +15.2        сухая 
06 22.07.17 150 (ЮВ) н/о    н/о 
+28.9 +9.3 29 +29  1016.8  -0.2  760  275           
09 22.07.17 080 (В) 20000 м    10/5 600 м кучево-дожд., верхняя 
[Cb cap|Cs]
+27.5 +8.5 30 +28  1016  -1  759  276           
12 22.07.17 020 (С) 20000 м  {гроза, ливн. осадки}  10/1 600 м верхняя 
[Cu hum|Ci fib]
+27.9 +12.9 40 +33  1015.9  759  275           
15 22.07.17 360 (С) 20000 м    10/0 верхняя 
[Ci sp]
+23.4 +16.7 66 +35  1015.5  -0.5  759  278    +30.6  0.3     
18 22.07.17 040 (СВ) н/о    н/о 
+17.6 +14.1 80 +25  1015.5  0.1  758  284           
21 22.07.17 040 (СВ) н/о    н/о 
+16.2 +14.8 91 +25  1015  0.1  758  285           
00 23.07.17 060 (СВ) н/о    н/о 
+16 +14.8 93 +25  1014.8  -0.2  758  285           
06 23.07.17 090 (В) н/о    н/о 
+28.6 +6.2 24 +29  1014.3  -0.6  758  275           
09 23.07.17 070 (В) 20000 м    10/0 верхняя 
[Ci sp]
+28.4 +5.3 23 +28  1013.3  -1  757  275           
12 23.07.17 090 (В) н/о    н/о 
+28.7 +4.6 22 +29  1012.5  -0.7  756  275           
15 23.07.17 070 (В) 20000 м    8/0 верхняя 
[Cc]
+24.3 +7.8 35 +24  1012.3  -0.3  756  279    +29.5       
18 23.07.17 060 (СВ) н/о    н/о 
+18.4 +11 62 +21  1012.2  0.1  756  283           
21 23.07.17 060 (СВ) н/о    н/о 
+16.2 +13.2 82 +23  1011.6  -0.7  756  285           
00 24.07.17 040 (СВ) н/о    н/о 
+15.2 +14.1 93 +23  1011.3  -0.3  755  285           
03 24.07.17 тихо ()   20000 м    3/0 верхняя 
[Ci sp]
+25.4 +15.2 53 +34  1010.6  -0.5  755  275  +13.1        сухая 
06 24.07.17 190 (Ю) 20000 м    3/3 600 м 
[Cu med, cong]
+28.2 +9.9 32 +29  1009.6  -1  754  274           
09 24.07.17 070 (В) 20000 м    8/4 600 м кучево-дожд., верхняя 
[Cb cap|Ci sp]
+29.4 +6.9 24 +29  1008.4  -1.2  753  273           
12 24.07.17 080 (В) 20000 м    6/3 600 м верхняя 
[Cu med, cong|Ci sp]
+27.5 +9.8 33 +28  1008.4  753  274           
15 24.07.17 090 (В) 20000 м    10/3 600 м верхняя 
[Cu med, cong|Cs]
+23.2 +11.6 48 +26  1008.2  753  278    +30       
18 24.07.17 080 (В) 20000 м    10/0 средняя, верхняя 
[Ac trans|Ci sp]
+16.6 +11.5 72 +21  1008.7  0.4  753  284           
Время (UTC), дата Ветер
(°,м/с) 
Видим.   Явления Облачность Т
(°С)
Тd
(°С)
f(%) Тe
(°С)
Pmin
(гПа)
dP
(гПа)
Po
(мм)
O2
(г/м3)
Тmin Tmax R s Состояние
почвы

Для получения пояснительной информации подведите курсор к названию столбца.

ПОГОДА Янги-Юган - архив

Всё, что Вы хотите узнать о погоде Янги-Юган - удобно и подробно!

Выберите нужную дату (начиная с 1 января 2015* года) и нажмите кнопку "Найти".
Будут отображены архивные сводки погоды по пункту Янги-Юган, начиная с указанной даты.


Отображать данные в формате CSV (для использования в таблицах Excel)


Внимание! Наш архив погоды предназначен исключительно для личного некоммерческого использования в познавательных целях. Если Вам необходимы официальные справки о состоянии погоды (для производственных, юридических, коммерческих и т.п. целей), обращайтесь в органы Росгидромета.

*Примечание: данная дата относится к архиву по метеостанциям СССР (Россия, СНГ, Балтия).
Архив по метеостанциям Зарубежной Европы и Азии (кроме Китая) хранится 10 дней, по другим регионам земного шара (Китай, Африка, Америка, Австралия, Океания) - 1 день.

Янги-Юган - район местоположения метеостанции


Название, широта, долгота, высота метеостанции:
Янги-Юган 66.1°ш. 68.7°д. 40 м над ур. моря [Российская Федерация]

Дополнительная информация

В oтличие oт бoльшинства пoгoдных сайтoв мы публикуем пoдрoбную метеoинфoрмацию в детальнoм прoфессиoнальнoм фoрмате.

Характеристики температуры и влажнoсти вoздуха измеряются на высoте 2 м в тени вдали oт зданий и деревьев.
Скoрoсть ветра измеряется на высoте 10 м (на урoвне рoста челoвека скoрoсть ветра ниже в 1.5-2 раза). Если метеoстанция нахoдится в гoрoде или в лесу, тo скoрoсть ветра занижена на 2-4 м/с пo сравнению с oткрытым местoм. Скoрoсть ветра над акватoриями крупных рек и oзёр, а также на вершинах хoлмoв на 2-5 м/с выше, чем в oбычных услoвиях.
Атмoсфернoе давление в разных тoчках местнoсти мoжет значительнo oтличаться oт давления на метеoстанции, в зависимoсти oт услoвий рельефа (при пoдъёме на 10 м давление пoнижается примернo на 1 мм рт.ст.).